This is the latest recevied weather packets stored in our database for station/object KC2GYU. If no packets are shown the sender has not sent any weather packets the latest 10 day(s).
| Time | Temp. | Humidity | Pressure | Rain* | Wind** | Luminosity | Snow |
|---|---|---|---|---|---|---|---|
| 1777465275 | 12.78° C | 81% | 1016.4 hPa | 0 mm | - | 147 W/m² | - |
| 1777464969 | 12.78° C | 78% | 1016.4 hPa | 0 mm | - | 131 W/m² | - |
| 1777464664 | 12.78° C | 78% | 1016.6 hPa | 0 mm | - | 136 W/m² | - |
| 1777464360 | 12.78° C | 75% | 1016.5 hPa | 0 mm | - | 145 W/m² | - |
| 1777464056 | 12.22° C | 76% | 1016.8 hPa | 0 mm | - | 134 W/m² | - |
| 1777463751 | 12.22° C | 76% | 1016.8 hPa | 0 mm | - | 133 W/m² | - |
| 1777463446 | 12.22° C | 78% | 1017 hPa | 0 mm | - | 122 W/m² | - |
| 1777463142 | 12.22° C | 80% | 1016.7 hPa | 0 mm | - | 127 W/m² | - |
| 1777462838 | 12.22° C | 82% | 1016.7 hPa | 0 mm | - | 113 W/m² | - |
| 1777462533 | 12.78° C | 83% | 1016.5 hPa | 0 mm | - | 116 W/m² | - |
| 1777462230 | 12.22° C | 84% | 1016.4 hPa | 0 mm | - | 102 W/m² | - |
| 1777461926 | 12.22° C | 85% | 1016.7 hPa | 0 mm | - | 93 W/m² | - |
| 1777461624 | 11.67° C | 86% | 1016.7 hPa | 0 mm | - | 91 W/m² | - |
| 1777461318 | 11.11° C | 88% | 1016.5 hPa | 0 mm | - | 91 W/m² | - |
| 1777461015 | 11.11° C | 89% | 1016.7 hPa | 0 mm | - | 74 W/m² | - |
| 1777460710 | 10.56° C | 89% | 1016.9 hPa | 0 mm | - | 62 W/m² | - |
| 1777460406 | 10.56° C | 89% | 1016.7 hPa | 0 mm | - | 53 W/m² | - |
| 1777460102 | 10.56° C | 91% | 1016.7 hPa | 0 mm | - | 47 W/m² | - |
| 1777459800 | 10.56° C | 91% | 1016.8 hPa | 0 mm | - | 42 W/m² | - |
| 1777459496 | 10.56° C | 91% | 1016.7 hPa | 0 mm | - | 27 W/m² | - |
| 1777459194 | 10.56° C | 91% | 1017 hPa | 0 mm | - | 24 W/m² | - |
| 1777458891 | 10.56° C | 91% | 1016.8 hPa | 0 mm | - | 19 W/m² | - |
| 1777458588 | 10.56° C | 91% | 1017 hPa | 0 mm | - | 12 W/m² | - |
| 1777458284 | 10° C | 91% | 1016.9 hPa | 0 mm | - | 7 W/m² | - |
| 1777457980 | 10° C | 91% | 1017.1 hPa | 0 mm | - | 4 W/m² | - |
* Rain latest hour (hover to see other rain measurements)
** Current wind speed in m/s (hover to see current wind gust speed)